QPF
0.00 0.00 0.00 0.00 0.00 0.00 0.00 0.00 0.00 0.00 0.00 0.00 0.01 0.01 0.01 0.01 0.00 0.00 0.01 0.00 0.00 0.00 0.00 0.00 0.01 0.01 0.01 0.01 0.02 0.01 0.01 0.01 0.02 0.04 0.06 0.10 0.11 0.11 0.15 0.21 0.19 0.16 0.13 0.11
0.00 0.00 0.00 0.00 0.00 0.00 0.00 0.00 0.00 0.00 0.00 0.01 0.01 0.02 0.01 0.01 0.00 0.00 0.01 0.01 0.00 0.00 0.00 0.00 0.01 0.02 0.02 0.02 0.02 0.02 0.01 0.01 0.02 0.03 0.05 0.07 0.09 0.09 0.10 0.16 0.22 0.20 0.16 0.12
0.00 0.00 0.00 0.00 0.00 0.00 0.00 0.00 0.00 0.00 0.00 0.01 0.02 0.02 0.01 0.01 0.01 0.00 0.00 0.01 0.00 0.00 0.00 0.01 0.01 0.03 0.03 0.02 0.02 0.02 0.02 0.02 0.01 0.02 0.04 0.06 0.08 0.08 0.09 0.11 0.15 0.19 0.21 0.14
0.00 0.00 0.00 0.00 0.00 0.00 0.00 0.00 0.00 0.00 0.00 0.01 0.01 0.01 0.01 0.01 0.01 0.00 0.00 0.01 0.01 0.00 0.00 0.01 0.01 0.02 0.03 0.02 0.01 0.02 0.02 0.02 0.02 0.02 0.03 0.05 0.07 0.08 0.09 0.11 0.12 0.12 0.15 0.15
0.00 0.00 0.00 0.00 0.00 0.00 0.00 0.00 0.00 0.00 0.00 0.01 0.00 0.01 0.01 0.00 0.00 0.00 0.00 0.00 0.00 0.00 0.00 0.00 0.01 0.02 0.03 0.03 0.02 0.02 0.02 0.02 0.02 0.02 0.02 0.04 0.05 0.06 0.08 0.10 0.11 0.10 0.11 0.12
0.00 0.00 0.00 0.00 0.00 0.00 0.00 0.00 0.00 0.00 0.01 0.01 0.01 0.01 0.01 0.01 0.01 0.00 0.00 0.00 0.00 0.00 0.00 0.00 0.01 0.02 0.03 0.04 0.03 0.02 0.02 0.03 0.03 0.03 0.03 0.03 0.04 0.05 0.05 0.07 0.11 0.10 0.09 0.09
0.00 0.00 0.00 0.00 0.00 0.00 0.00 0.01 0.01 0.01 0.01 0.01 0.01 0.01 0.02 0.01 0.01 0.01 0.01 0.00 0.00 0.00 0.00 0.01 0.01 0.01 0.02 0.04 0.05 0.03 0.03 0.02 0.03 0.03 0.03 0.03 0.03 0.04 0.04 0.05 0.09 0.10 0.09 0.07
0.00 0.00 0.00 0.00 0.00 0.00 0.00 0.01 0.01 0.01 0.01 0.01 0.01 0.01 0.02 0.02 0.01 0.01 0.01 0.01 0.01 0.01 0.01 0.01 0.01 0.01 0.02 0.04 0.05 0.05 0.04 0.03 0.03 0.04 0.04 0.03 0.04 0.05 0.05 0.05 0.07 0.09 0.10 0.08
0.00 0.00 0.00 0.00 0.00 0.00 0.00 0.00 0.00 0.01 0.01 0.01 0.01 0.02 0.02 0.02 0.02 0.02 0.01 0.01 0.01 0.01 0.01 0.01 0.01 0.02 0.02 0.03 0.05 0.07 0.06 0.04 0.04 0.05 0.05 0.06 0.06 0.06 0.06 0.06 0.08 0.11 0.12 0.11
0.01 0.01 0.00 0.00 0.00 0.00 0.00 0.00 0.01 0.02 0.01 0.01 0.01 0.01 0.01 0.02 0.03 0.03 0.02 0.01 0.02 0.02 0.02 0.01 0.02 0.02 0.02 0.03 0.04 0.06 0.07 0.06 0.05 0.05 0.06 0.06 0.06 0.06 0.06 0.05 0.07 0.09 0.10 0.10
0.00 0.01 0.00 0.00 0.00 0.00 0.00 0.01 0.01 0.01 0.01 0.01 0.01 0.02 0.02 0.02 0.03 0.02 0.02 0.02 0.02 0.02 0.02 0.02 0.02 0.02 0.03 0.03 0.05 0.05 0.07 0.08 0.07 0.07 0.07 0.07 0.07 0.06 0.05 0.05 0.06 0.07 0.07 0.07
0.00 0.01 0.01 0.00 0.00 0.00 0.00 0.01 0.02 0.02 0.02 0.01 0.01 0.02 0.01 0.02 0.02 0.02 0.01 0.02 0.02 0.03 0.03 0.03 0.02 0.02 0.03 0.03 0.05 0.06 0.07 0.09 0.10 0.09 0.08 0.07 0.07 0.06 0.05 0.05 0.05 0.05 0.05 0.05
0.01 0.02 0.01 0.01 0.01 0.01 0.01 0.01 0.01 0.01 0.02 0.01 0.01 0.01 0.01 0.01 0.01 0.01 0.01 0.02 0.02 0.03 0.03 0.03 0.03 0.03 0.03 0.03 0.04 0.04 0.05 0.07 0.10 0.11 0.11 0.08 0.05 0.05 0.04 0.04 0.06 0.06 0.06 0.06
0.03 0.02 0.01 0.02 0.02 0.02 0.01 0.00 0.00 0.01 0.02 0.01 0.01 0.01 0.01 0.01 0.01 0.01 0.01 0.02 0.02 0.02 0.02 0.02 0.03 0.02 0.02 0.02 0.02 0.03 0.03 0.04 0.06 0.08 0.10 0.11 0.08 0.05 0.04 0.04 0.04 0.05 0.06 0.07
0.02 0.02 0.01 0.00 0.01 0.01 0.01 0.00 0.00 0.00 0.01 0.01 0.01 0.01 0.01 0.01 0.01 0.01 0.02 0.02 0.02 0.02 0.02 0.02 0.02 0.02 0.02 0.02 0.01 0.01 0.01 0.02 0.02 0.04 0.06 0.08 0.12 0.09 0.05 0.05 0.05 0.05 0.05 0.06
0.02 0.02 0.01 0.01 0.00 0.00 0.00 0.00 0.00 0.00 0.00 0.00 0.00 0.00 0.01 0.01 0.01 0.01 0.01 0.01 0.01 0.01 0.01 0.01 0.01 0.02 0.02 0.02 0.01 0.01 0.01 0.01 0.01 0.02 0.03 0.05 0.08 0.12 0.10 0.07 0.07 0.07 0.07 0.08
0.03 0.03 0.03 0.01 0.00 0.01 0.01 0.00 0.00 0.00 0.00 0.00 0.00 0.00 0.00 0.00 0.00 0.00 0.00 0.00 0.00 0.00 0.00 0.00 0.01 0.01 0.01 0.03 0.02 0.01 0.01 0.01 0.01 0.01 0.02 0.03 0.04 0.07 0.10 0.10 0.09 0.10 0.09 0.09
0.04 0.04 0.05 0.03 0.01 0.01 0.00 0.00 0.00 0.00 0.00 0.00 0.00 0.00 0.00 0.00 0.00 0.00 0.00 0.00 0.00 0.00 0.00 0.00 0.01 0.02 0.02 0.04 0.02 0.01 0.01 0.01 0.01 0.01 0.01 0.02 0.03 0.05 0.07 0.09 0.10 0.10 0.11 0.10
0.03 0.05 0.07 0.05 0.03 0.01 0.00 0.01 0.01 0.01 0.00 0.01 0.01 0.00 0.00 0.00 0.00 0.00 0.00 0.00 0.00 0.00 0.00 0.00 0.01 0.02 0.02 0.04 0.03 0.01 0.01 0.01 0.01 0.01 0.01 0.02 0.02 0.04 0.05 0.06 0.08 0.09 0.10 0.10
0.03 0.05 0.07 0.05 0.04 0.02 0.01 0.00 0.00 0.01 0.01 0.01 0.01 0.01 0.01 0.01 0.01 0.00 0.00 0.00 0.00 0.00 0.00 0.01 0.02 0.02 0.02 0.04 0.04 0.02 0.01 0.01 0.01 0.01 0.01 0.02 0.03 0.04 0.05 0.05 0.07 0.08 0.09 0.09
0.02 0.04 0.05 0.04 0.04 0.01 0.01 0.00 0.00 0.01 0.02 0.01 0.01 0.01 0.01 0.01 0.01 0.00 0.00 0.00 0.00 0.00 0.00 0.01 0.02 0.01 0.01 0.03 0.03 0.03 0.02 0.01 0.01 0.01 0.02 0.02 0.02 0.04 0.05 0.05 0.05 0.07 0.08 0.08
0.02 0.03 0.04 0.04 0.04 0.02 0.01 0.01 0.01 0.02 0.01 0.01 0.01 0.01 0.01 0.01 0.00 0.00 0.00 0.00 0.00 0.00 0.00 0.01 0.01 0.01 0.01 0.02 0.03 0.04 0.02 0.02 0.02 0.02 0.02 0.03 0.03 0.04 0.06 0.05 0.06 0.07 0.07 0.08
0.01 0.02 0.03 0.03 0.02 0.01 0.01 0.01 0.01 0.01 0.01 0.01 0.01 0.01 0.01 0.01 0.00 0.00 0.00 0.00 0.00 0.01 0.01 0.01 0.01 0.01 0.01 0.02 0.03 0.03 0.03 0.02 0.03 0.03 0.03 0.03 0.03 0.03 0.05 0.06 0.06 0.08 0.08 0.07
0.01 0.01 0.02 0.02 0.01 0.01 0.01 0.01 0.01 0.01 0.01 0.01 0.01 0.01 0.01 0.01 0.01 0.00 0.00 0.00 0.00 0.00 0.01 0.01 0.01 0.01 0.01 0.01 0.02 0.03 0.03 0.03 0.03 0.03 0.03 0.03 0.03 0.03 0.04 0.06 0.06 0.07 0.09 0.08
0.01 0.01 0.02 0.02 0.01 0.01 0.00 0.01 0.01 0.01 0.01 0.01 0.01 0.01 0.01 0.01 0.01 0.00 0.00 0.00 0.00 0.01 0.01 0.01 0.01 0.01 0.01 0.01 0.02 0.03 0.03 0.04 0.04 0.03 0.03 0.03 0.03 0.03 0.04 0.05 0.07 0.08 0.08 0.09
0.01 0.02 0.02 0.02 0.01 0.02 0.01 0.01 0.01 0.02 0.01 0.01 0.01 0.01 0.01 0.01 0.01 0.00 0.00 0.00 0.00 0.01 0.01 0.01 0.02 0.02 0.02 0.02 0.02 0.02 0.03 0.04 0.04 0.04 0.03 0.03 0.03 0.03 0.03 0.04 0.05 0.07 0.08 0.08
MSLP
1019.38 1019.55 1019.76 1019.99 1020.19 1020.32 1020.33 1020.17 1019.83 1019.32 1018.67 1017.94 1017.20 1016.51 1015.94 1015.56 1015.36 1015.34 1015.46 1015.67 1015.89 1016.08 1016.18 1016.18 1016.06 1015.87 1015.62 1015.36 1015.08 1014.80 1014.50 1014.14 1013.69 1013.11 1012.39 1011.57 1010.67 1009.79 1009.00 1008.41 1008.08 1008.05 1008.35 1008.94
1019.73 1020.01 1020.34 1020.70 1021.03 1021.26 1021.33 1021.20 1020.85 1020.29 1019.57 1018.75 1017.93 1017.19 1016.60 1016.23 1016.07 1016.10 1016.27 1016.52 1016.75 1016.90 1016.93 1016.81 1016.55 1016.20 1015.80 1015.38 1014.98 1014.61 1014.24 1013.84 1013.37 1012.80 1012.10 1011.28 1010.40 1009.53 1008.75 1008.16 1007.82 1007.80 1008.10 1008.70
1019.98 1020.37 1020.84 1021.33 1021.78 1022.10 1022.23 1022.12 1021.74 1021.11 1020.30 1019.39 1018.48 1017.68 1017.07 1016.71 1016.61 1016.72 1016.98 1017.29 1017.56 1017.72 1017.70 1017.48 1017.10 1016.59 1016.02 1015.45 1014.92 1014.45 1014.02 1013.59 1013.12 1012.56 1011.89 1011.12 1010.27 1009.42 1008.65 1008.06 1007.72 1007.68 1007.97 1008.55
1020.07 1020.59 1021.19 1021.81 1022.37 1022.78 1022.96 1022.84 1022.40 1021.69 1020.76 1019.74 1018.73 1017.86 1017.22 1016.89 1016.85 1017.06 1017.44 1017.86 1018.22 1018.43 1018.40 1018.13 1017.66 1017.02 1016.31 1015.60 1014.95 1014.38 1013.89 1013.44 1012.98 1012.45 1011.83 1011.11 1010.31 1009.49 1008.74 1008.15 1007.79 1007.71 1007.95 1008.49
1020.02 1020.67 1021.40 1022.14 1022.81 1023.28 1023.48 1023.34 1022.83 1022.01 1020.96 1019.79 1018.67 1017.71 1017.04 1016.73 1016.77 1017.10 1017.61 1018.18 1018.67 1018.97 1018.99 1018.73 1018.20 1017.49 1016.67 1015.85 1015.09 1014.44 1013.90 1013.44 1012.99 1012.51 1011.95 1011.28 1010.53 1009.75 1009.01 1008.40 1008.00 1007.88 1008.05 1008.51
1019.92 1020.68 1021.53 1022.38 1023.12 1023.65 1023.85 1023.67 1023.08 1022.13 1020.93 1019.63 1018.37 1017.32 1016.61 1016.31 1016.41 1016.85 1017.51 1018.24 1018.88 1019.32 1019.44 1019.23 1018.72 1017.98 1017.11 1016.21 1015.39 1014.67 1014.10 1013.62 1013.19 1012.75 1012.23 1011.62 1010.91 1010.15 1009.41 1008.78 1008.33 1008.13 1008.22 1008.60
1019.89 1020.73 1021.67 1022.60 1023.40 1023.94 1024.13 1023.90 1023.21 1022.15 1020.81 1019.36 1017.97 1016.83 1016.05 1015.74 1015.89 1016.42 1017.21 1018.09 1018.90 1019.49 1019.74 1019.63 1019.18 1018.47 1017.59 1016.67 1015.81 1015.06 1014.46 1013.97 1013.55 1013.13 1012.65 1012.08 1011.40 1010.66 1009.91 1009.24 1008.74 1008.46 1008.46 1008.73
1020.01 1020.92 1021.90 1022.87 1023.69 1024.23 1024.40 1024.10 1023.33 1022.15 1020.69 1019.11 1017.61 1016.36 1015.52 1015.18 1015.34 1015.93 1016.81 1017.81 1018.76 1019.49 1019.89 1019.90 1019.55 1018.90 1018.07 1017.17 1016.31 1015.55 1014.93 1014.44 1014.02 1013.61 1013.16 1012.61 1011.95 1011.21 1010.45 1009.75 1009.19 1008.83 1008.73 1008.89
1020.34 1021.26 1022.25 1023.21 1024.01 1024.53 1024.65 1024.29 1023.45 1022.19 1020.64 1018.97 1017.37 1016.04 1015.13 1014.74 1014.87 1015.46 1016.38 1017.45 1018.49 1019.33 1019.85 1019.99 1019.76 1019.22 1018.47 1017.62 1016.80 1016.05 1015.44 1014.95 1014.53 1014.13 1013.68 1013.14 1012.50 1011.77 1011.01 1010.28 1009.66 1009.23 1009.04 1009.11
1020.83 1021.71 1022.66 1023.57 1024.32 1024.77 1024.83 1024.42 1023.53 1022.23 1020.63 1018.92 1017.27 1015.88 1014.91 1014.46 1014.54 1015.08 1015.97 1017.04 1018.11 1019.01 1019.62 1019.87 1019.76 1019.33 1018.69 1017.94 1017.18 1016.48 1015.89 1015.41 1014.99 1014.59 1014.16 1013.64 1013.02 1012.31 1011.55 1010.81 1010.17 1009.70 1009.43 1009.40
1021.33 1022.13 1022.98 1023.80 1024.46 1024.83 1024.83 1024.38 1023.47 1022.17 1020.58 1018.88 1017.25 1015.85 1014.84 1014.33 1014.33 1014.79 1015.59 1016.59 1017.62 1018.52 1019.17 1019.50 1019.49 1019.19 1018.68 1018.04 1017.37 1016.75 1016.21 1015.75 1015.35 1014.97 1014.55 1014.06 1013.47 1012.80 1012.09 1011.38 1010.74 1010.25 1009.93 1009.83
1021.66 1022.34 1023.07 1023.75 1024.29 1024.56 1024.49 1024.01 1023.12 1021.87 1020.36 1018.74 1017.18 1015.83 1014.82 1014.28 1014.19 1014.54 1015.22 1016.10 1017.04 1017.89 1018.53 1018.90 1018.99 1018.80 1018.42 1017.92 1017.37 1016.83 1016.36 1015.95 1015.59 1015.24 1014.85 1014.41 1013.88 1013.28 1012.63 1011.99 1011.40 1010.91 1010.58 1010.42
1021.66 1022.20 1022.77 1023.29 1023.68 1023.84 1023.70 1023.22 1022.37 1021.22 1019.85 1018.38 1016.95 1015.71 1014.76 1014.21 1014.07 1014.31 1014.85 1015.59 1016.39 1017.15 1017.76 1018.14 1018.29 1018.22 1017.97 1017.61 1017.19 1016.77 1016.38 1016.04 1015.72 1015.41 1015.08 1014.69 1014.25 1013.74 1013.20 1012.65 1012.14 1011.71 1011.38 1011.19
1021.28 1021.65 1022.03 1022.37 1022.60 1022.64 1022.43 1021.95 1021.18 1020.17 1018.98 1017.72 1016.49 1015.42 1014.59 1014.08 1013.91 1014.06 1014.47 1015.06 1015.73 1016.38 1016.93 1017.32 1017.52 1017.55 1017.43 1017.21 1016.93 1016.63 1016.33 1016.06 1015.80 1015.54 1015.26 1014.95 1014.59 1014.20 1013.78 1013.36 1012.96 1012.61 1012.33 1012.14
1020.53 1020.72 1020.91 1021.05 1021.10 1021.01 1020.74 1020.27 1019.60 1018.75 1017.78 1016.77 1015.79 1014.93 1014.27 1013.85 1013.70 1013.80 1014.11 1014.57 1015.11 1015.66 1016.15 1016.53 1016.79 1016.91 1016.92 1016.84 1016.69 1016.50 1016.30 1016.10 1015.89 1015.68 1015.45 1015.21 1014.94 1014.66 1014.37 1014.09 1013.82 1013.58 1013.37 1013.21
1019.56 1019.56 1019.54 1019.48 1019.35 1019.13 1018.80 1018.35 1017.77 1017.10 1016.36 1015.62 1014.91 1014.30 1013.83 1013.55 1013.45 1013.54 1013.78 1014.15 1014.59 1015.05 1015.50 1015.89 1016.20 1016.41 1016.54 1016.59 1016.57 1016.49 1016.37 1016.22 1016.05 1015.87 1015.68 1015.49 1015.30 1015.12 1014.95 1014.80 1014.66 1014.54 1014.43 1014.33
1018.56 1018.36 1018.14 1017.88 1017.57 1017.23 1016.84 1016.39 1015.91 1015.40 1014.89 1014.41 1013.97 1013.61 1013.35 1013.21 1013.19 1013.30 1013.51 1013.82 1014.19 1014.60 1015.03 1015.43 1015.80 1016.11 1016.36 1016.53 1016.62 1016.64 1016.59 1016.48 1016.33 1016.16 1015.98 1015.81 1015.66 1015.56 1015.49 1015.45 1015.44 1015.44 1015.44 1015.41
1017.73 1017.34 1016.91 1016.47 1016.00 1015.54 1015.08 1014.64 1014.24 1013.88 1013.56 1013.30 1013.10 1012.96 1012.89 1012.88 1012.95 1013.09 1013.29 1013.57 1013.91 1014.29 1014.72 1015.16 1015.59 1016.00 1016.36 1016.64 1016.84 1016.94 1016.95 1016.87 1016.72 1016.54 1016.35 1016.18 1016.05 1015.98 1015.98 1016.03 1016.12 1016.23 1016.33 1016.39
1017.19 1016.62 1016.02 1015.41 1014.81 1014.24 1013.73 1013.29 1012.95 1012.69 1012.52 1012.43 1012.41 1012.43 1012.50 1012.60 1012.73 1012.89 1013.10 1013.35 1013.67 1014.05 1014.49 1014.98 1015.50 1016.01 1016.47 1016.87 1017.17 1017.35 1017.40 1017.34 1017.19 1016.99 1016.77 1016.58 1016.45 1016.39 1016.43 1016.54 1016.70 1016.90 1017.08 1017.23
1016.94 1016.23 1015.50 1014.76 1014.06 1013.42 1012.86 1012.43 1012.12 1011.93 1011.85 1011.87 1011.95 1012.07 1012.21 1012.36 1012.51 1012.68 1012.86 1013.10 1013.41 1013.79 1014.26 1014.81 1015.41 1016.01 1016.59 1017.10 1017.49 1017.75 1017.86 1017.83 1017.68 1017.47 1017.23 1017.02 1016.87 1016.81 1016.86 1017.00 1017.22 1017.47 1017.73 1017.95
1016.92 1016.12 1015.30 1014.50 1013.74 1013.06 1012.49 1012.06 1011.77 1011.61 1011.57 1011.63 1011.74 1011.88 1012.02 1012.16 1012.28 1012.40 1012.55 1012.75 1013.04 1013.43 1013.93 1014.53 1015.21 1015.92 1016.61 1017.22 1017.72 1018.06 1018.23 1018.25 1018.13 1017.93 1017.69 1017.47 1017.32 1017.26 1017.32 1017.48 1017.72 1018.01 1018.30 1018.58
1016.98 1016.16 1015.33 1014.52 1013.77 1013.10 1012.54 1012.12 1011.84 1011.68 1011.64 1011.67 1011.74 1011.83 1011.90 1011.95 1011.99 1012.04 1012.12 1012.27 1012.53 1012.91 1013.44 1014.09 1014.84 1015.64 1016.43 1017.16 1017.76 1018.20 1018.46 1018.54 1018.49 1018.33 1018.12 1017.93 1017.79 1017.75 1017.82 1018.00 1018.26 1018.57 1018.89 1019.18
1017.01 1016.24 1015.47 1014.72 1014.02 1013.41 1012.90 1012.50 1012.22 1012.05 1011.95 1011.91 1011.89 1011.86 1011.81 1011.73 1011.65 1011.58 1011.57 1011.65 1011.87 1012.24 1012.78 1013.47 1014.29 1015.17 1016.05 1016.87 1017.58 1018.12 1018.48 1018.67 1018.70 1018.62 1018.49 1018.36 1018.28 1018.28 1018.38 1018.59 1018.86 1019.19 1019.52 1019.82
1016.95 1016.29 1015.63 1015.00 1014.42 1013.90 1013.46 1013.10 1012.81 1012.60 1012.42 1012.27 1012.11 1011.92 1011.71 1011.47 1011.24 1011.04 1010.92 1010.93 1011.09 1011.44 1011.99 1012.71 1013.57 1014.52 1015.48 1016.39 1017.19 1017.84 1018.31 1018.61 1018.75 1018.79 1018.77 1018.74 1018.75 1018.83 1018.99 1019.24 1019.55 1019.88 1020.22 1020.52
1016.80 1016.31 1015.82 1015.35 1014.90 1014.49 1014.13 1013.80 1013.50 1013.23 1012.95 1012.66 1012.33 1011.97 1011.57 1011.16 1010.77 1010.44 1010.22 1010.15 1010.27 1010.60 1011.14 1011.89 1012.78 1013.77 1014.79 1015.77 1016.65 1017.40 1017.97 1018.39 1018.66 1018.83 1018.95 1019.05 1019.17 1019.36 1019.61 1019.92 1020.27 1020.63 1020.97 1021.27
1016.67 1016.37 1016.07 1015.76 1015.46 1015.16 1014.85 1014.54 1014.21 1013.85 1013.45 1013.00 1012.49 1011.94 1011.37 1010.79 1010.25 1009.81 1009.50 1009.37 1009.45 1009.77 1010.32 1011.08 1011.99 1013.01 1014.06 1015.09 1016.04 1016.86 1017.53 1018.06 1018.46 1018.77 1019.02 1019.26 1019.52 1019.83 1020.18 1020.57 1020.98 1021.38 1021.74 1022.04
Thickness
5567 5555 5545 5544 5544 5544 5543 5540 5539 5543 5541 5532 5530 5531 5531 5528 5524 5522 5518 5513 5509 5505 5503 5500 5498 5496 5497 5498 5500 5501 5503 5505 5508 5510 5513 5516 5518 5522 5525 5528 5530 5533 5535 5538
5552 5539 5538 5540 5538 5535 5533 5528 5529 5533 5530 5522 5517 5519 5524 5522 5516 5511 5505 5501 5496 5492 5489 5487 5485 5484 5484 5485 5486 5488 5490 5492 5494 5497 5499 5502 5505 5508 5511 5514 5517 5520 5522 5525
5536 5530 5531 5529 5524 5523 5522 5515 5513 5509 5510 5511 5501 5508 5515 5513 5507 5502 5495 5489 5486 5481 5476 5473 5471 5470 5470 5472 5474 5476 5478 5480 5482 5484 5487 5490 5492 5495 5498 5500 5503 5506 5509 5512
5525 5522 5519 5516 5511 5506 5507 5505 5500 5496 5487 5491 5497 5484 5504 5500 5494 5490 5482 5477 5472 5468 5464 5461 5459 5458 5457 5458 5461 5463 5465 5467 5469 5471 5473 5475 5477 5480 5483 5486 5490 5493 5496 5500
5514 5509 5504 5502 5499 5495 5492 5491 5487 5483 5476 5472 5481 5469 5488 5488 5481 5474 5469 5465 5460 5457 5453 5450 5448 5446 5446 5446 5448 5449 5452 5454 5455 5457 5460 5462 5464 5467 5470 5474 5477 5481 5484 5488
5502 5498 5493 5489 5486 5484 5480 5479 5476 5469 5464 5457 5473 5464 5474 5470 5466 5464 5458 5453 5449 5446 5442 5439 5437 5435 5434 5434 5435 5437 5438 5440 5442 5444 5447 5449 5451 5454 5457 5461 5465 5468 5472 5476
5496 5487 5481 5476 5472 5472 5467 5461 5461 5459 5454 5464 5469 5459 5457 5457 5456 5451 5445 5440 5437 5433 5430 5427 5425 5423 5422 5422 5423 5424 5425 5426 5428 5430 5433 5435 5438 5441 5444 5448 5452 5456 5460 5465
5482 5479 5468 5462 5458 5451 5453 5451 5444 5442 5454 5461 5453 5448 5450 5449 5442 5437 5433 5428 5424 5420 5417 5415 5414 5411 5410 5410 5410 5412 5413 5414 5415 5417 5420 5422 5425 5428 5431 5435 5439 5443 5448 5452
5464 5465 5454 5451 5448 5444 5444 5439 5435 5425 5427 5422 5442 5445 5439 5436 5430 5424 5419 5415 5409 5406 5405 5403 5401 5400 5398 5398 5397 5398 5400 5401 5402 5404 5406 5409 5412 5414 5418 5422 5426 5430 5435 5440
5449 5441 5445 5438 5435 5429 5428 5427 5415 5412 5411 5420 5440 5445 5434 5417 5414 5410 5404 5400 5398 5396 5393 5390 5389 5387 5386 5386 5385 5386 5388 5389 5390 5391 5392 5397 5399 5402 5406 5410 5414 5418 5423 5428
5437 5425 5429 5426 5418 5419 5411 5409 5406 5405 5408 5405 5412 5424 5423 5415 5406 5399 5394 5390 5386 5383 5380 5377 5376 5375 5374 5374 5373 5374 5375 5377 5378 5379 5380 5383 5386 5389 5393 5397 5401 5406 5411 5416
5424 5414 5414 5420 5416 5413 5410 5406 5396 5388 5392 5393 5390 5401 5412 5404 5397 5390 5384 5382 5377 5372 5369 5366 5364 5364 5362 5361 5362 5362 5363 5364 5365 5367 5368 5371 5374 5377 5380 5385 5389 5394 5399 5405
5409 5399 5400 5409 5400 5391 5390 5393 5388 5379 5373 5376 5379 5393 5397 5391 5384 5379 5374 5369 5365 5361 5358 5354 5351 5350 5349 5348 5349 5349 5349 5351 5353 5355 5357 5359 5362 5365 5369 5373 5377 5382 5387 5393
5402 5390 5391 5402 5406 5389 5380 5380 5376 5365 5357 5365 5376 5387 5387 5378 5371 5366 5361 5356 5352 5348 5345 5341 5338 5336 5335 5335 5334 5336 5337 5338 5340 5342 5344 5347 5350 5353 5357 5361 5366 5371 5376 5381
5386 5378 5383 5388 5393 5387 5384 5379 5370 5359 5359 5359 5373 5375 5376 5367 5359 5354 5349 5345 5342 5337 5333 5329 5325 5323 5322 5322 5322 5323 5325 5326 5327 5330 5332 5335 5337 5340 5345 5349 5354 5359 5364 5369
5374 5368 5370 5371 5381 5377 5376 5376 5371 5364 5359 5358 5360 5361 5360 5354 5349 5342 5336 5332 5328 5323 5320 5316 5313 5311 5310 5310 5311 5312 5313 5314 5315 5318 5320 5323 5326 5329 5333 5337 5342 5347 5352 5357
5362 5356 5355 5363 5367 5362 5361 5368 5364 5359 5357 5351 5348 5350 5344 5339 5334 5327 5321 5317 5313 5309 5306 5303 5300 5298 5297 5296 5297 5299 5300 5302 5303 5306 5308 5311 5313 5317 5321 5325 5329 5334 5340 5345
5350 5345 5345 5348 5347 5343 5371 5363 5359 5353 5349 5342 5338 5332 5328 5322 5318 5315 5310 5303 5299 5296 5293 5290 5288 5287 5286 5285 5286 5287 5289 5291 5292 5294 5296 5298 5301 5305 5309 5313 5318 5323 5328 5334
5346 5340 5338 5339 5340 5351 5362 5348 5339 5334 5333 5330 5324 5319 5313 5308 5307 5306 5300 5293 5288 5283 5280 5277 5276 5275 5275 5275 5276 5277 5279 5279 5281 5283 5285 5287 5290 5294 5298 5302 5307 5312 5317 5323
5334 5330 5327 5331 5331 5336 5349 5331 5328 5322 5318 5318 5313 5306 5300 5295 5290 5293 5287 5281 5277 5274 5271 5268 5267 5265 5264 5264 5265 5266 5268 5269 5271 5273 5275 5277 5280 5283 5288 5293 5298 5303 5307 5313
5320 5318 5317 5320 5324 5330 5325 5317 5315 5312 5315 5306 5300 5295 5288 5282 5278 5275 5273 5269 5266 5264 5262 5259 5257 5255 5254 5254 5255 5256 5258 5259 5262 5264 5267 5270 5273 5276 5281 5285 5290 5295 5299 5304
5319 5314 5312 5313 5315 5324 5310 5306 5303 5301 5296 5293 5288 5283 5277 5272 5267 5264 5261 5258 5256 5253 5252 5249 5247 5245 5245 5245 5245 5247 5249 5251 5254 5256 5259 5262 5266 5270 5275 5279 5283 5287 5290 5294
5322 5321 5318 5314 5319 5315 5305 5299 5295 5289 5285 5281 5276 5270 5266 5261 5258 5255 5251 5248 5246 5244 5242 5240 5238 5237 5236 5236 5237 5238 5241 5244 5247 5250 5252 5255 5259 5263 5267 5270 5274 5277 5280 5284
5320 5313 5310 5305 5310 5306 5298 5292 5287 5282 5275 5270 5265 5260 5255 5250 5247 5244 5242 5240 5237 5235 5233 5232 5230 5229 5229 5229 5230 5231 5233 5236 5239 5241 5245 5248 5252 5255 5258 5261 5264 5268 5271 5274
5317 5302 5298 5294 5297 5295 5293 5285 5278 5272 5266 5261 5256 5251 5246 5241 5237 5234 5232 5230 5228 5228 5225 5224 5222 5222 5222 5222 5223 5224 5226 5228 5231 5234 5237 5240 5243 5246 5249 5252 5254 5258 5261 5265
5304 5296 5290 5293 5290 5284 5282 5277 5271 5263 5257 5252 5247 5242 5237 5233 5229 5226 5223 5221 5219 5218 5217 5216 5215 5215 5215 5215 5216 5217 5219 5221 5224 5227 5230 5232 5235 5238 5241 5243 5246 5249 5253 5257